Ana Sayfa
METAR-TAF:

METAR-TAF

Havaalanları :

Kamışlı Havaalanı

Kamışlı, Suriye

Enlem: 37-03N, Boylam: 041-13E, yükseklik: 455 m

Güncel hava durumu gözlemi

Rapor saat 13:00 UTC de 23 dakika önce yapıldı.
Rüzgar güneydan 8 kt
Sıcaklık 33°C
Nem 9%
Basınç 1010 hPa
Görüş mesafesi 10 km veya daha fazla
2600 ft yükseklikte az bulutlu

METAR: OSKL 261300Z 19008KT 9999 FEW026 33/M04 Q1010

Saat: 16:23 (13:23 UTC)


TAF: eksik

4.000'den fazla havaalanı için hava durumu gözlemleri ve tahminleri (METAR ve TAF raporları).

Kullanılabilir istasyonlar harita üzerinde sarı ve kırmızı noktalarla gösterilir.

İstasyonun adını görmek için fareyi noktanın üzerinde gezdirin.

Sonrasında hava gözlem ve tahminlerini görmek için tıklayın.

Haritayı değiştirmek için: yaklaştırmak için siyah artı işaretli yeşil düğmeye ve uzaklaştırmak için de eksi işaretli düğmeye hızla tıklayın; bitişik haritalar için yeşil okları kullanın.


METAR-TAF: